EWG4VC EDDL-LSGG

Flight info

Callsign EWG4VC
Flight time N/A
Altitude 31000
Route MODRU2T MODRU Z283 SOPOK DCT ROUSY DCT GTQ DCT POGOL DCT LASAT DCT MOROK Z24 AKITO AKITO3R
Aircraft A321/M-SDE3FGHIRWY/LB1

Departure

Time 2026-02-22 07:08
Airport Düsseldorf Airport (EDDL)

Arrival

Time N/A
Airport Geneva International Airport (LSGG)
Time Latitude Longitude Altitude Speed Heading
2026-02-22 06:44 51.28151 6.76542 131 ft 0 kts 97°
2026-02-22 06:52 51.28151 6.76541 130 ft 2 kts 97°
2026-02-22 06:53 51.28153 6.76515 131 ft 2 kts 96°
2026-02-22 06:53 51.28154 6.76489 131 ft 2 kts 88°
2026-02-22 06:53 51.28151 6.76464 132 ft 2 kts 75°
2026-02-22 06:53 51.28145 6.76439 132 ft 2 kts 48°
2026-02-22 06:54 51.28134 6.76422 132 ft 2 kts 13°
2026-02-22 06:54 51.28131 6.76421 132 ft 0 kts
2026-02-22 07:02 51.28133 6.76421 132 ft 2 kts
2026-02-22 07:02 51.28180 6.76431 133 ft 12 kts
2026-02-22 07:02 51.28269 6.76486 132 ft 14 kts 28°
2026-02-22 07:03 51.28349 6.76494 133 ft 10 kts 27°
2026-02-22 07:03 51.28397 6.76584 134 ft 12 kts 54°
2026-02-22 07:03 51.28453 6.76698 135 ft 13 kts 52°
2026-02-22 07:03 51.28497 6.76789 138 ft 8 kts 52°
2026-02-22 07:04 51.28531 6.76861 139 ft 9 kts 53°
2026-02-22 07:04 51.28590 6.76987 141 ft 18 kts 52°
2026-02-22 07:04 51.28664 6.77143 142 ft 19 kts 53°
2026-02-22 07:04 51.28749 6.77321 141 ft 21 kts 53°
2026-02-22 07:05 51.28841 6.77511 139 ft 22 kts 52°
2026-02-22 07:05 51.28924 6.77687 142 ft 18 kts 52°
2026-02-22 07:05 51.28995 6.77838 143 ft 15 kts 54°
2026-02-22 07:05 51.29050 6.77956 145 ft 12 kts 52°
2026-02-22 07:06 51.29100 6.78058 145 ft 14 kts 53°
2026-02-22 07:06 51.29165 6.78191 146 ft 15 kts 52°
2026-02-22 07:06 51.29234 6.78299 145 ft 14 kts 35°
2026-02-22 07:06 51.29305 6.78380 146 ft 11 kts 37°
2026-02-22 07:07 51.29368 6.78454 147 ft 12 kts 31°
2026-02-22 07:07 51.29446 6.78477 148 ft 10 kts 354°
2026-02-22 07:07 51.29486 6.78421 148 ft 7 kts 268°
2026-02-22 07:07 51.29464 6.78351 148 ft 7 kts 235°
2026-02-22 07:08 51.29425 6.78271 148 ft 28 kts 231°
2026-02-22 07:08 51.29115 6.77616 144 ft 117 kts 233°
2026-02-22 07:08 51.28497 6.76296 381 ft 168 kts 235°
2026-02-22 07:08 51.27793 6.74743 1301 ft 179 kts 236°
2026-02-22 07:09 51.27017 6.73070 2090 ft 195 kts 237°
2026-02-22 07:09 51.26208 6.71343 2852 ft 193 kts 238°
2026-02-22 07:09 51.25393 6.69604 3630 ft 197 kts 239°
2026-02-22 07:09 51.24587 6.67811 4409 ft 200 kts 242°
2026-02-22 07:10 51.23838 6.65926 5175 ft 203 kts 243°
2026-02-22 07:10 51.23101 6.64002 5881 ft 211 kts 243°
2026-02-22 07:10 51.22214 6.62028 6416 ft 230 kts 227°
2026-02-22 07:10 51.20807 6.60603 7030 ft 246 kts 214°
2026-02-22 07:11 51.19252 6.59351 7651 ft 255 kts 213°
2026-02-22 07:11 51.17660 6.58071 8283 ft 259 kts 217°
2026-02-22 07:11 51.16332 6.56196 8933 ft 253 kts 240°
2026-02-22 07:11 51.15505 6.53747 9600 ft 252 kts 248°
2026-02-22 07:12 51.14735 6.51208 10243 ft 255 kts 248°
2026-02-22 07:12 51.13962 6.48655 10796 ft 263 kts 248°
2026-02-22 07:12 51.13144 6.45967 11251 ft 275 kts 248°
2026-02-22 07:12 51.12290 6.43168 11752 ft 285 kts 248°
2026-02-22 07:13 51.11407 6.40286 12262 ft 294 kts 248°
2026-02-22 07:13 51.10497 6.37321 12794 ft 300 kts 248°
2026-02-22 07:13 51.09586 6.34362 13451 ft 303 kts 248°
2026-02-22 07:13 51.08652 6.31330 14088 ft 306 kts 248°
2026-02-22 07:14 51.07707 6.28264 14707 ft 309 kts 248°
2026-02-22 07:14 51.06765 6.25205 15319 ft 311 kts 248°
2026-02-22 07:14 51.05806 6.22104 15945 ft 313 kts 248°
2026-02-22 07:14 51.04838 6.18983 16556 ft 315 kts 248°
2026-02-22 07:15 51.03865 6.15849 17155 ft 318 kts 248°
2026-02-22 07:15 51.02870 6.12679 17767 ft 321 kts 245°
2026-02-22 07:15 51.01606 6.09765 18381 ft 329 kts 234°
2026-02-22 07:15 50.99918 6.07239 18902 ft 339 kts 223°
2026-02-22 07:16 50.97904 6.05183 19382 ft 345 kts 218°
2026-02-22 07:16 50.95866 6.03190 19800 ft 351 kts 218°
2026-02-22 07:16 50.93752 6.01126 20090 ft 360 kts 217°
2026-02-22 07:16 50.91543 5.99116 20389 ft 370 kts 216°
2026-02-22 07:17 50.89258 5.97153 20690 ft 378 kts 214°
2026-02-22 07:17 50.86931 5.95221 21008 ft 384 kts 214°
2026-02-22 07:17 50.84544 5.93256 21409 ft 387 kts 214°
2026-02-22 07:17 50.82139 5.91266 21894 ft 389 kts 214°
2026-02-22 07:18 50.79744 5.89246 22361 ft 390 kts 215°
2026-02-22 07:18 50.77386 5.87225 22837 ft 391 kts 215°
2026-02-22 07:18 50.74979 5.85143 23332 ft 392 kts 215°
2026-02-22 07:18 50.66232 5.77579 24888 ft 396 kts 216°
2026-02-22 07:19 50.59601 5.72525 25792 ft 414 kts 202°
2026-02-22 07:19 50.56720 5.71768 26168 ft 427 kts 191°
2026-02-22 07:19 50.53725 5.71935 26543 ft 439 kts 180°
2026-02-22 07:19 50.50684 5.72551 26930 ft 440 kts 180°
2026-02-22 07:20 50.47632 5.73152 27312 ft 442 kts 180°
2026-02-22 07:20 50.44575 5.73736 27703 ft 442 kts 180°
2026-02-22 07:20 50.41559 5.74305 28210 ft 440 kts 180°
2026-02-22 07:20 50.38516 5.74881 28751 ft 438 kts 180°
2026-02-22 07:21 50.35488 5.75458 29302 ft 435 kts 181°
2026-02-22 07:21 50.32486 5.76035 29873 ft 432 kts 181°
2026-02-22 07:21 50.29543 5.76598 30337 ft 431 kts 181°
2026-02-22 07:21 50.26552 5.77165 30584 ft 434 kts 180°
2026-02-22 07:22 50.23559 5.78132 30814 ft 445 kts 172°
2026-02-22 07:22 50.20566 5.79462 31061 ft 448 kts 171°
2026-02-22 07:22 50.17545 5.80811 31166 ft 455 kts 171°
2026-02-22 07:23 50.11361 5.83562 31194 ft 465 kts 171°
2026-02-22 07:23 50.05148 5.86336 31200 ft 466 kts 171°
2026-02-22 07:24 49.98921 5.89099 31202 ft 467 kts 171°
2026-02-22 07:24 49.92650 5.91859 31202 ft 467 kts 171°
2026-02-22 07:25 49.86417 5.94599 31204 ft 467 kts 171°
2026-02-22 07:25 49.80145 5.97350 31207 ft 468 kts 171°
2026-02-22 07:26 49.73864 6.00101 31213 ft 468 kts 171°
2026-02-22 07:26 49.67610 6.02836 31213 ft 468 kts 171°
2026-02-22 07:27 49.61354 6.05557 31215 ft 469 kts 171°
2026-02-22 07:27 49.55067 6.08277 31215 ft 469 kts 171°
2026-02-22 07:28 49.48851 6.11328 31214 ft 476 kts 161°
2026-02-22 07:28 49.45921 6.13802 31212 ft 483 kts 150°
2026-02-22 07:28 49.43232 6.16959 31215 ft 487 kts 145°
2026-02-22 07:29 49.37956 6.23528 31222 ft 488 kts 145°
2026-02-22 07:29 49.32683 6.30032 31234 ft 488 kts 145°
2026-02-22 07:30 49.27396 6.36524 31252 ft 488 kts 145°
2026-02-22 07:30 49.22111 6.43014 31257 ft 488 kts 145°
2026-02-22 07:31 49.16790 6.49531 31262 ft 489 kts 145°
2026-02-22 07:31 49.11502 6.55991 31268 ft 489 kts 145°
2026-02-22 07:32 49.06175 6.62468 31267 ft 488 kts 145°
2026-02-22 07:32 49.00601 6.68217 31273 ft 480 kts 160°
2026-02-22 07:33 48.94324 6.71080 31273 ft 465 kts 179°
2026-02-22 07:33 48.87972 6.71201 31267 ft 457 kts 188°
2026-02-22 07:34 48.81628 6.70926 31274 ft 457 kts 188°
2026-02-22 07:34 48.75245 6.70686 31279 ft 458 kts 187°
2026-02-22 07:35 48.68899 6.70457 31287 ft 458 kts 187°
2026-02-22 07:35 48.62506 6.70211 31291 ft 458 kts 187°
2026-02-22 07:36 48.56143 6.69962 31304 ft 458 kts 187°
2026-02-22 07:36 48.49795 6.69712 31310 ft 458 kts 187°
2026-02-22 07:37 48.43391 6.69463 31317 ft 458 kts 187°
2026-02-22 07:37 48.37002 6.69226 31322 ft 458 kts 187°
2026-02-22 07:38 48.30651 6.68978 31006 ft 459 kts 187°
2026-02-22 07:38 48.27457 6.68857 30634 ft 459 kts 187°
2026-02-22 07:38 48.24261 6.68737 30247 ft 459 kts 187°
2026-02-22 07:38 48.21073 6.68613 29821 ft 459 kts 187°
2026-02-22 07:39 48.17904 6.68490 29402 ft 460 kts 187°
2026-02-22 07:39 48.14695 6.68363 28986 ft 460 kts 186°
2026-02-22 07:39 48.11478 6.68240 28574 ft 461 kts 186°
2026-02-22 07:39 48.08263 6.68119 28171 ft 462 kts 186°
2026-02-22 07:40 48.05077 6.67997 27781 ft 462 kts 186°
2026-02-22 07:40 48.01852 6.67876 27387 ft 463 kts 186°
2026-02-22 07:40 47.98630 6.67760 26962 ft 463 kts 186°
2026-02-22 07:40 47.95426 6.67640 26568 ft 464 kts 186°
2026-02-22 07:41 47.92193 6.67517 26171 ft 465 kts 186°
2026-02-22 07:41 47.88950 6.67400 25777 ft 466 kts 186°
2026-02-22 07:41 47.85694 6.67284 25387 ft 467 kts 185°
2026-02-22 07:41 47.82431 6.67162 25002 ft 466 kts 185°
2026-02-22 07:42 47.79228 6.67034 24627 ft 464 kts 185°
2026-02-22 07:42 47.72815 6.66793 23865 ft 459 kts 185°
2026-02-22 07:42 47.69627 6.66670 23502 ft 456 kts 185°
2026-02-22 07:43 47.66453 6.66548 23221 ft 455 kts 185°
2026-02-22 07:43 47.63276 6.66428 22957 ft 453 kts 185°
2026-02-22 07:43 47.60155 6.66310 22695 ft 450 kts 185°
2026-02-22 07:43 47.57011 6.66192 22371 ft 449 kts 185°
2026-02-22 07:44 47.53915 6.66078 22082 ft 448 kts 185°
2026-02-22 07:44 47.50802 6.65964 21800 ft 446 kts 185°
2026-02-22 07:44 47.47702 6.65855 21511 ft 444 kts 185°
2026-02-22 07:44 47.44609 6.65746 21230 ft 443 kts 185°
2026-02-22 07:45 47.41533 6.65633 20949 ft 441 kts 185°
2026-02-22 07:45 47.38498 6.65519 20671 ft 439 kts 185°
2026-02-22 07:45 47.35441 6.65405 20397 ft 438 kts 185°
2026-02-22 07:45 47.32390 6.65290 20126 ft 436 kts 185°
2026-02-22 07:46 47.30384 6.65214 19945 ft 435 kts 185°
2026-02-22 07:46 47.27361 6.65090 19665 ft 433 kts 186°
2026-02-22 07:46 47.23455 6.64200 19308 ft 423 kts 200°
2026-02-22 07:46 47.21610 6.63277 19136 ft 419 kts 206°
2026-02-22 07:47 47.19023 6.61341 18870 ft 412 kts 216°
2026-02-22 07:47 47.16770 6.58885 18606 ft 400 kts 225°
2026-02-22 07:47 47.14730 6.56211 18307 ft 385 kts 226°
2026-02-22 07:47 47.12750 6.53613 17911 ft 377 kts 226°
2026-02-22 07:48 47.10819 6.51092 17516 ft 367 kts 226°
2026-02-22 07:48 47.08928 6.48633 17122 ft 358 kts 226°
2026-02-22 07:48 47.07106 6.46258 16743 ft 350 kts 226°
2026-02-22 07:48 47.05309 6.43902 16358 ft 342 kts 226°
2026-02-22 07:49 47.03542 6.41593 15980 ft 335 kts 226°
2026-02-22 07:49 47.01830 6.39362 15615 ft 328 kts 226°
2026-02-22 07:49 47.00135 6.37152 15257 ft 322 kts 226°
2026-02-22 07:49 46.98477 6.34986 14899 ft 315 kts 226°
2026-02-22 07:50 46.96850 6.32868 14544 ft 310 kts 226°
2026-02-22 07:50 46.95061 6.31101 14192 ft 313 kts 208°
2026-02-22 07:50 46.92967 6.30381 13789 ft 314 kts 186°
2026-02-22 07:50 46.90805 6.30555 13397 ft 309 kts 180°
2026-02-22 07:51 46.88660 6.30798 13006 ft 306 kts 180°
2026-02-22 07:51 46.86542 6.31045 12624 ft 304 kts 180°
2026-02-22 07:51 46.84440 6.31290 12238 ft 301 kts 180°
2026-02-22 07:51 46.82383 6.31528 11860 ft 299 kts 180°
2026-02-22 07:52 46.80320 6.31761 11518 ft 296 kts 180°
2026-02-22 07:52 46.78285 6.31987 11248 ft 287 kts 181°
2026-02-22 07:52 46.76312 6.32207 10976 ft 278 kts 181°
2026-02-22 07:52 46.74392 6.32422 10713 ft 275 kts 181°
2026-02-22 07:53 46.72524 6.32631 10450 ft 271 kts 181°
2026-02-22 07:53 46.70647 6.32842 10172 ft 267 kts 181°
2026-02-22 07:53 46.68802 6.33050 9901 ft 262 kts 181°
2026-02-22 07:53 46.67002 6.33255 9640 ft 263 kts 181°
2026-02-22 07:54 46.65158 6.33459 9375 ft 264 kts 181°
2026-02-22 07:54 46.63347 6.33661 9121 ft 263 kts 180°
2026-02-22 07:54 46.61521 6.33868 8866 ft 261 kts 180°
2026-02-22 07:54 46.59717 6.34070 8615 ft 256 kts 180°
2026-02-22 07:55 46.57963 6.34266 8366 ft 249 kts 180°
2026-02-22 07:55 46.56259 6.34466 8125 ft 248 kts 178°
2026-02-22 07:55 46.54568 6.35076 7897 ft 251 kts 162°
2026-02-22 07:55 46.53022 6.36286 7706 ft 252 kts 148°
2026-02-22 07:56 46.51732 6.37938 7509 ft 247 kts 139°
2026-02-22 07:56 46.50510 6.39672 7295 ft 243 kts 139°
2026-02-22 07:56 46.49298 6.41373 7124 ft 241 kts 140°
2026-02-22 07:56 46.47919 6.42614 7011 ft 234 kts 166°
2026-02-22 07:57 46.46336 6.42776 6912 ft 226 kts 194°
2026-02-22 07:57 46.44926 6.41878 6828 ft 220 kts 219°
2026-02-22 07:57 46.43801 6.40436 6680 ft 211 kts 226°
2026-02-22 07:57 46.42793 6.38946 6427 ft 208 kts 227°
2026-02-22 07:58 46.41783 6.37439 6143 ft 207 kts 227°
2026-02-22 07:58 46.40779 6.35947 5862 ft 206 kts 226°
2026-02-22 07:58 46.39794 6.34487 5594 ft 197 kts 226°
2026-02-22 07:58 46.38864 6.33110 5337 ft 188 kts 226°
2026-02-22 07:59 46.37961 6.31772 5085 ft 183 kts 225°
2026-02-22 07:59 46.37068 6.30451 4838 ft 183 kts 225°
2026-02-22 07:59 46.36185 6.29143 4587 ft 179 kts 225°
2026-02-22 07:59 46.35341 6.27896 4362 ft 172 kts 225°
2026-02-22 08:00 46.34521 6.26685 4124 ft 165 kts 225°
2026-02-22 08:00 46.33725 6.25508 3912 ft 162 kts 225°
2026-02-22 08:00 46.32940 6.24349 3684 ft 159 kts 225°
2026-02-22 08:00 46.32183 6.23232 3476 ft 154 kts 225°
2026-02-22 08:01 46.31436 6.22130 3264 ft 152 kts 225°
2026-02-22 08:01 46.30698 6.21041 3057 ft 151 kts 225°
2026-02-22 08:01 46.29963 6.19951 2833 ft 150 kts 226°
2026-02-22 08:01 46.29233 6.18861 2631 ft 151 kts 226°
2026-02-22 08:02 46.28494 6.17793 2440 ft 151 kts 226°
2026-02-22 08:02 46.27756 6.16701 2196 ft 153 kts 227°
2026-02-22 08:02 46.27032 6.15600 2008 ft 152 kts 227°
2026-02-22 08:02 46.26306 6.14534 1793 ft 147 kts 226°
2026-02-22 08:03 46.25595 6.13502 1626 ft 140 kts 226°
2026-02-22 08:03 46.24905 6.12500 1385 ft 134 kts 225°
2026-02-22 08:03 46.24349 6.11687 1386 ft 92 kts 225°